Location: Milton
(43.5183°N, 79.8775°W)
Time: 10:53:02
(UTC+00:00)

COSMOS 2251 DEB - Pass Details

Date: 12 December 2023
Orbit: 708 x 767 km, 74.0° (Epoch: 04 March)

Event Time Altitude Azimuth Distance (km) Brightness Sun altitude
Exits shadow 11:02:18 - 345° (NNW) 2,385 ? -17.5°
Reaches altitude 10° 11:02:35 10° 345° (NNW) 2,281 ? -17.5°
Maximum altitude 11:07:44 64° 67° (ENE) 841 ? -16.6°
Drops below altitude 10° 11:12:54 10° 149° (SSE) 2,296 ? -15.7°
Sets 11:15:18 0° 153° (SSE) 3,222 ? -15.3°
